Location: Fort Worth, Tx
(32.7431°N, 97.3695°W)
Time: 06:25:18
(UTC-05:00)

ISS - Pass Details

Date: 22 November 2019
Orbit: 411 x 421 km, 51.6° (Epoch: 08 December)

Event Time Altitude Azimuth Distance (km) Brightness Sun altitude
Rises 20:08:06 0° 263° (W) 2,345 1.6 -21.5°
Reaches altitude 10° 20:10:44 10° 285° (WNW) 1,488 -0.1 -22.0°
Maximum altitude 20:12:58 17° 327° (NNW) 1,160 -1.3 -22.5°
Enters shadow 20:13:23 16° 337° (NNW) 1,174 -1.4 -22.6°
